| time (UTC) | temp C | wind direction | speed KPH | gust KPH | rain 1hr cm | rain 24hr cm | rain mn cm | humidity % | barometer mb |
| 20260508154918 | 13 | 293 | 3.2 | 4.8 | 0.00 | 0.00 | 0.00 | 50 | 992.7 |
| 20260508154418 | 13 | 315 | 4.8 | 6.4 | 0.00 | 0.00 | 0.00 | 50 | 992.7 |
| 20260508153919 | 12 | 270 | 4.8 | 9.7 | 0.00 | 0.00 | 0.00 | 50 | 992.6 |
| 20260508153438 | 12 | 338 | 6.4 | 9.7 | 0.00 | 0.00 | 0.00 | 51 | 992.6 |
| 20260508152918 | 12 | 293 | 4.8 | 8.0 | 0.00 | 0.00 | 0.00 | 50 | 992.7 |
| 20260508152439 | 12 | 0 | 4.8 | 8.0 | 0.00 | 0.00 | 0.00 | 50 | 992.7 |
| 20260508151918 | 12 | 23 | 6.4 | 8.0 | 0.00 | 0.00 | 0.00 | 50 | 992.7 |
| 20260508151438 | 12 | 293 | 3.2 | 6.4 | 0.00 | 0.00 | 0.00 | 50 | 992.7 |
| 20260508150938 | 12 | 270 | 4.8 | 9.7 | 0.00 | 0.00 | 0.00 | 49 | 992.6 |
| 20260508150418 | 13 | 293 | 4.8 | 4.8 | 0.00 | 0.00 | 0.00 | 49 | 992.6 |
| 20260508145938 | 13 | 270 | 4.8 | 9.7 | 0.00 | 0.00 | 0.00 | 48 | 992.5 |
| 20260508145418 | 13 | 270 | 6.4 | 11.3 | 0.00 | 0.00 | 0.00 | 49 | 992.5 |
| 20260508144918 | 13 | 270 | 3.2 | 6.4 | 0.00 | 0.00 | 0.00 | 49 | 992.4 |
| 20260508144420 | 12 | 270 | 6.4 | 9.7 | 0.00 | 0.00 | 0.00 | 49 | 992.6 |
| 20260508143918 | 12 | 270 | 4.8 | 6.4 | 0.00 | 0.00 | 0.00 | 49 | 992.6 |
| 20260508143438 | 12 | 270 | 9.7 | 12.9 | 0.00 | 0.00 | 0.00 | 49 | 992.6 |
| 20260508142918 | 12 | 270 | 4.8 | 4.8 | 0.00 | 0.00 | 0.00 | 49 | 992.6 |
| 20260508142421 | 12 | 270 | 4.8 | 6.4 | 0.00 | 0.00 | 0.00 | 49 | 992.7 |
| 20260508141920 | 12 | 248 | 6.4 | 8.0 | 0.00 | 0.00 | 0.00 | 50 | 992.7 |
| 20260508141418 | 12 | 270 | 6.4 | 9.7 | 0.00 | 0.00 | 0.00 | 49 | 992.7 |
| 20260508140920 | 12 | 248 | 6.4 | 8.0 | 0.00 | 0.00 | 0.00 | 49 | 992.7 |
| 20260508140418 | 12 | 248 | 4.8 | 8.0 | 0.00 | 0.00 | 0.00 | 50 | 992.7 |
| 20260508135939 | 12 | 270 | 6.4 | 11.3 | 0.00 | 0.00 | 0.00 | 50 | 992.7 |
| 20260508135420 | 12 | 270 | 9.7 | 14.5 | 0.00 | 0.00 | 0.00 | 50 | 992.7 |
| 20260508134918 | 12 | 270 | 12.9 | 16.1 | 0.00 | 0.00 | 0.00 | 50 | 992.8 |
| 20260508134419 | 11 | 270 | 11.3 | 12.9 | 0.00 | 0.00 | 0.00 | 49 | 992.8 |
| 20260508133918 | 11 | 270 | 11.3 | 12.9 | 0.00 | 0.00 | 0.00 | 49 | 992.8 |
| 20260508133418 | 11 | 248 | 11.3 | 12.9 | 0.00 | 0.00 | 0.00 | 51 | 992.7 |
| 20260508132918 | 11 | 270 | 9.7 | 11.3 | 0.00 | 0.00 | 0.00 | 50 | 992.7 |
| 20260508132419 | 11 | 270 | 8.0 | 11.3 | 0.00 | 0.00 | 0.00 | 50 | 992.7 |
| 20260508131918 | 11 | 270 | 12.9 | 14.5 | 0.00 | 0.00 | 0.00 | 50 | 992.8 |
| 20260508131418 | 11 | 270 | 9.7 | 12.9 | 0.00 | 0.00 | 0.00 | 51 | 992.8 |
| 20260508130918 | 11 | 248 | 9.7 | 12.9 | 0.00 | 0.00 | 0.00 | 50 | 992.8 |
| 20260508130418 | 11 | 225 | 6.4 | 8.0 | 0.00 | 0.00 | 0.00 | 50 | 992.8 |
| 20260508125918 | 11 | 225 | 9.7 | 12.9 | 0.00 | 0.00 | 0.00 | 50 | 992.8 |
| 20260508125418 | 11 | 248 | 8.0 | 11.3 | 0.00 | 0.00 | 0.00 | 51 | 992.9 |
| 20260508124918 | 10 | 248 | 8.0 | 12.9 | 0.00 | 0.00 | 0.00 | 50 | 992.9 |
| 20260508124418 | 10 | 248 | 8.0 | 12.9 | 0.00 | 0.00 | 0.00 | 51 | 992.9 |
| 20260508123918 | 10 | 225 | 8.0 | 11.3 | 0.00 | 0.00 | 0.00 | 50 | 992.8 |
| 20260508123418 | 10 | 248 | 8.0 | 11.3 | 0.00 | 0.00 | 0.00 | 49 | 992.8 |
| 20260508122958 | 10 | 225 | 8.0 | 11.3 | 0.00 | 0.00 | 0.00 | 49 | 992.8 |
| 20260508122418 | 10 | 248 | 6.4 | 11.3 | 0.00 | 0.00 | 0.00 | 49 | 992.8 |
| 20260508121919 | 10 | 225 | 6.4 | 9.7 | 0.00 | 0.00 | 0.00 | 49 | 992.7 |
| 20260508121418 | 10 | 248 | 11.3 | 16.1 | 0.00 | 0.00 | 0.00 | 51 | 992.6 |
| 20260508120918 | 10 | 248 | 11.3 | 14.5 | 0.00 | 0.00 | 0.00 | 50 | 992.5 |
| 20260508120418 | 10 | 225 | 12.9 | 14.5 | 0.00 | 0.00 | 0.00 | 50 | 992.5 |
| 20260508115959 | 10 | 248 | 11.3 | 14.5 | 0.00 | 0.00 | 0.00 | 50 | 992.4 |
| 20260508115418 | 10 | 225 | 14.5 | 19.3 | 0.00 | 0.00 | 0.00 | 50 | 992.5 |
| 20260508114918 | 10 | 248 | 14.5 | 17.7 | 0.00 | 0.00 | 0.00 | 50 | 992.4 |
| 20260508114417 | 10 | 225 | 17.7 | 20.9 | 0.00 | 0.00 | 0.00 | 50 | 992.3 |
| 20260508113918 | 10 | 225 | 14.5 | 17.7 | 0.00 | 0.00 | 0.00 | 50 | 992.2 |
| 20260508113439 | 10 | 225 | 16.1 | 20.9 | 0.00 | 0.00 | 0.00 | 50 | 992.0 |
| 20260508112918 | 10 | 225 | 12.9 | 16.1 | 0.00 | 0.00 | 0.00 | 50 | 992.0 |
| 20260508112418 | 10 | 225 | 12.9 | 16.1 | 0.00 | 0.00 | 0.00 | 50 | 992.0 |
| 20260508111918 | 10 | 225 | 14.5 | 16.1 | 0.00 | 0.00 | 0.00 | 50 | 991.9 |
| 20260508111418 | 10 | 225 | 14.5 | 17.7 | 0.00 | 0.00 | 0.00 | 50 | 991.9 |
| 20260508110917 | 10 | 225 | 16.1 | 19.3 | 0.00 | 0.00 | 0.00 | 51 | 991.9 |
| 20260508110418 | 10 | 225 | 16.1 | 17.7 | 0.00 | 0.00 | 0.00 | 51 | 991.8 |
| 20260508105918 | 10 | 203 | 16.1 | 17.7 | 0.00 | 0.00 | 0.00 | 51 | 991.7 |
| 20260508105417 | 10 | 203 | 14.5 | 19.3 | 0.00 | 0.00 | 0.00 | 51 | 991.7 |
| 20260508104918 | 10 | 203 | 16.1 | 19.3 | 0.00 | 0.00 | 0.00 | 51 | 991.8 |
| 20260508104418 | 10 | 225 | 12.9 | 16.1 | 0.00 | 0.00 | 0.00 | 51 | 991.8 |
| 20260508103918 | 10 | 225 | 12.9 | 14.5 | 0.00 | 0.00 | 0.00 | 51 | 991.9 |
| 20260508103418 | 10 | 248 | 8.0 | 11.3 | 0.00 | 0.00 | 0.00 | 50 | 991.8 |
| 20260508102918 | 10 | 248 | 3.2 | 4.8 | 0.00 | 0.00 | 0.00 | 50 | 991.8 |
| 20260508102418 | 10 | 225 | 12.9 | 16.1 | 0.00 | 0.00 | 0.00 | 51 | 991.8 |
| 20260508101918 | 10 | 225 | 9.7 | 14.5 | 0.00 | 0.00 | 0.00 | 51 | 991.8 |
| 20260508101417 | 10 | 225 | 8.0 | 9.7 | 0.00 | 0.00 | 0.00 | 51 | 991.7 |
| 20260508100918 | 10 | 225 | 6.4 | 8.0 | 0.00 | 0.00 | 0.00 | 51 | 991.7 |
| 20260508100417 | 10 | 225 | 9.7 | 14.5 | 0.00 | 0.00 | 0.00 | 52 | 991.7 |
| 20260508095918 | 9 | 225 | 11.3 | 14.5 | 0.00 | 0.00 | 0.00 | 52 | 991.7 |
| 20260508095419 | 9 | 225 | 12.9 | 19.3 | 0.00 | 0.00 | 0.00 | 52 | 991.7 |
| 20260508094938 | 9 | 203 | 14.5 | 17.7 | 0.00 | 0.00 | 0.00 | 53 | 991.7 |
| 20260508094417 | 9 | 203 | 16.1 | 20.9 | 0.00 | 0.00 | 0.00 | 54 | 991.7 |
| 20260508093918 | 9 | 203 | 12.9 | 20.9 | 0.00 | 0.00 | 0.00 | 54 | 991.7 |
| 20260508093417 | 8 | 225 | 12.9 | 14.5 | 0.00 | 0.00 | 0.00 | 55 | 991.9 |
| 20260508092958 | 8 | 225 | 14.5 | 17.7 | 0.00 | 0.00 | 0.00 | 56 | 991.9 |
| 20260508092418 | 8 | 225 | 11.3 | 12.9 | 0.00 | 0.00 | 0.00 | 56 | 991.9 |
| 20260508091917 | 8 | 225 | 11.3 | 12.9 | 0.00 | 0.00 | 0.00 | 55 | 991.9 |
| 20260508091438 | 8 | 225 | 9.7 | 9.7 | 0.00 | 0.00 | 0.00 | 55 | 991.9 |
| 20260508090918 | 8 | 225 | 11.3 | 12.9 | 0.00 | 0.00 | 0.00 | 55 | 991.9 |
| 20260508090418 | 8 | 225 | 8.0 | 9.7 | 0.00 | 0.00 | 0.00 | 55 | 991.8 |
| 20260508085917 | 8 | 248 | 8.0 | 9.7 | 0.00 | 0.00 | 0.00 | 55 | 991.9 |
| 20260508085418 | 8 | 225 | 8.0 | 11.3 | 0.00 | 0.00 | 0.00 | 56 | 991.9 |
| 20260508084937 | 8 | 225 | 9.7 | 11.3 | 0.00 | 0.00 | 0.00 | 56 | 991.9 |
| 20260508084417 | 8 | 225 | 12.9 | 16.1 | 0.00 | 0.00 | 0.00 | 55 | 991.9 |
| 20260508083917 | 8 | 225 | 11.3 | 16.1 | 0.00 | 0.00 | 0.00 | 56 | 991.9 |
| 20260508083417 | 8 | 225 | 9.7 | 12.9 | 0.00 | 0.00 | 0.00 | 56 | 991.9 |
| 20260508082917 | 8 | 203 | 11.3 | 12.9 | 0.00 | 0.00 | 0.00 | 56 | 992.0 |
| 20260508082418 | 8 | 225 | 12.9 | 16.1 | 0.00 | 0.00 | 0.00 | 56 | 992.0 |
| 20260508081918 | 8 | 225 | 12.9 | 17.7 | 0.00 | 0.00 | 0.00 | 56 | 992.1 |
| 20260508081417 | 8 | 225 | 14.5 | 17.7 | 0.00 | 0.00 | 0.00 | 56 | 992.1 |
| 20260508080918 | 8 | 225 | 16.1 | 19.3 | 0.00 | 0.00 | 0.00 | 56 | 992.1 |
| 20260508080417 | 8 | 203 | 14.5 | 17.7 | 0.00 | 0.00 | 0.00 | 56 | 992.2 |
| 20260508075917 | 8 | 225 | 16.1 | 19.3 | 0.00 | 0.00 | 0.00 | 56 | 992.1 |
| 20260508075437 | 8 | 225 | 16.1 | 19.3 | 0.00 | 0.00 | 0.00 | 56 | 992.2 |
| 20260508074918 | 8 | 203 | 11.3 | 16.1 | 0.00 | 0.00 | 0.00 | 57 | 992.1 |
| 20260508074418 | 8 | 225 | 12.9 | 17.7 | 0.00 | 0.00 | 0.00 | 57 | 992.1 |
| 20260508073918 | 8 | 225 | 16.1 | 17.7 | 0.00 | 0.00 | 0.00 | 56 | 992.2 |
| 20260508073438 | 8 | 225 | 14.5 | 16.1 | 0.00 | 0.00 | 0.00 | 56 | 992.2 |
| 20260508072938 | 9 | 225 | 12.9 | 14.5 | 0.00 | 0.00 | 0.00 | 57 | 992.2 |
| 20260508072417 | 9 | 225 | 11.3 | 14.5 | 0.00 | 0.00 | 0.00 | 57 | 992.2 |
| 20260508071917 | 9 | 225 | 14.5 | 19.3 | 0.00 | 0.00 | 0.00 | 56 | 992.3 |
| 20260508071419 | 9 | 225 | 12.9 | 16.1 | 0.00 | 0.00 | 0.00 | 57 | 992.4 |
| 20260508070917 | 9 | 225 | 14.5 | 17.7 | 0.00 | 0.00 | 0.00 | 56 | 992.3 |
| 20260508070417 | 9 | 225 | 12.9 | 14.5 | 0.00 | 0.00 | 0.00 | 56 | 992.4 |
| 20260508065918 | 9 | 225 | 14.5 | 16.1 | 0.00 | 0.00 | 0.00 | 56 | 992.4 |
| 20260508065417 | 9 | 225 | 14.5 | 16.1 | 0.00 | 0.00 | 0.00 | 56 | 992.4 |
| 20260508064918 | 9 | 225 | 14.5 | 17.7 | 0.00 | 0.00 | 0.00 | 56 | 992.4 |
| 20260508064417 | 9 | 225 | 14.5 | 17.7 | 0.00 | 0.00 | 0.00 | 56 | 992.4 |
| 20260508063918 | 10 | 225 | 14.5 | 17.7 | 0.00 | 0.00 | 0.00 | 55 | 992.4 |
| 20260508063417 | 10 | 225 | 14.5 | 16.1 | 0.00 | 0.00 | 0.00 | 55 | 992.5 |
| 20260508062937 | 10 | 225 | 16.1 | 19.3 | 0.00 | 0.00 | 0.00 | 55 | 992.5 |
| 20260508062417 | 10 | 225 | 17.7 | 19.3 | 0.00 | 0.00 | 0.00 | 55 | 992.5 |
| 20260508061918 | 10 | 225 | 17.7 | 22.5 | 0.00 | 0.00 | 0.00 | 53 | 992.5 |
| 20260508061459 | 10 | 248 | 17.7 | 20.9 | 0.00 | 0.00 | 0.00 | 53 | 992.5 |
| 20260508060917 | 10 | 225 | 12.9 | 17.7 | 0.00 | 0.00 | 0.00 | 53 | 992.5 |
| 20260508060417 | 10 | 225 | 14.5 | 16.1 | 0.00 | 0.00 | 0.00 | 52 | 992.5 |
| 20260508055917 | 10 | 225 | 9.7 | 14.5 | 0.00 | 0.00 | 0.00 | 52 | 992.5 |
| 20260508055417 | 10 | 225 | 11.3 | 16.1 | 0.00 | 0.00 | 0.00 | 52 | 992.6 |
| 20260508054917 | 10 | 225 | 9.7 | 14.5 | 0.00 | 0.00 | 0.00 | 52 | 992.5 |
| 20260508054419 | 10 | 225 | 11.3 | 12.9 | 0.00 | 0.00 | 0.00 | 52 | 992.7 |
| 20260508053937 | 10 | 248 | 11.3 | 14.5 | 0.00 | 0.00 | 0.00 | 52 | 992.6 |
| 20260508053440 | 10 | 248 | 12.9 | 14.5 | 0.00 | 0.00 | 0.00 | 52 | 992.7 |
| 20260508052920 | 10 | 225 | 16.1 | 19.3 | 0.00 | 0.00 | 0.00 | 52 | 992.7 |
| 20260508052417 | 10 | 225 | 19.3 | 27.4 | 0.00 | 0.00 | 0.00 | 52 | 992.7 |
| 20260508051939 | 10 | 225 | 16.1 | 19.3 | 0.00 | 0.00 | 0.00 | 52 | 992.8 |
| 20260508051441 | 10 | 203 | 11.3 | 17.7 | 0.00 | 0.00 | 0.00 | 53 | 992.8 |
| 20260508050917 | 10 | 203 | 11.3 | 14.5 | 0.00 | 0.00 | 0.00 | 53 | 992.9 |
| 20260508050420 | 10 | 225 | 11.3 | 14.5 | 0.00 | 0.00 | 0.00 | 53 | 992.8 |
| 20260508045917 | 10 | 203 | 12.9 | 16.1 | 0.00 | 0.00 | 0.00 | 53 | 992.8 |
| 20260508045419 | 10 | 203 | 8.0 | 9.7 | 0.00 | 0.00 | 0.00 | 53 | 992.8 |
| 20260508044919 | 10 | 203 | 11.3 | 14.5 | 0.00 | 0.00 | 0.00 | 52 | 992.9 |
| 20260508044439 | 10 | 203 | 6.4 | 9.7 | 0.00 | 0.00 | 0.00 | 52 | 992.9 |
| 20260508043937 | 10 | 203 | 4.8 | 9.7 | 0.00 | 0.00 | 0.00 | 52 | 992.9 |
| 20260508043417 | 10 | 203 | 8.0 | 12.9 | 0.00 | 0.00 | 0.00 | 51 | 992.9 |
| 20260508042919 | 10 | 180 | 6.4 | 11.3 | 0.00 | 0.00 | 0.00 | 51 | 992.9 |
| 20260508042420 | 10 | 203 | 3.2 | 6.4 | 0.00 | 0.00 | 0.00 | 51 | 992.9 |
| 20260508041941 | 10 | 203 | 6.4 | 9.7 | 0.00 | 0.00 | 0.00 | 51 | 992.9 |
| 20260508041417 | 10 | 225 | 11.3 | 14.5 | 0.00 | 0.00 | 0.00 | 50 | 992.9 |
| 20260508040917 | 10 | 225 | 9.7 | 12.9 | 0.00 | 0.00 | 0.00 | 50 | 993.0 |
| 20260508040419 | 10 | 225 | 9.7 | 12.9 | 0.00 | 0.00 | 0.00 | 50 | 993.1 |
| 20260508035917 | 10 | 225 | 9.7 | 12.9 | 0.00 | 0.00 | 0.00 | 50 | 993.1 |
| 20260508035418 | 10 | 225 | 11.3 | 12.9 | 0.00 | 0.00 | 0.00 | 50 | 993.1 |
| 20260508034938 | 10 | 225 | 9.7 | 11.3 | 0.00 | 0.00 | 0.00 | 50 | 993.1 |
| 20260508034418 | 10 | 225 | 9.7 | 12.9 | 0.00 | 0.00 | 0.00 | 49 | 993.0 |
| 20260508033918 | 10 | 225 | 12.9 | 14.5 | 0.00 | 0.00 | 0.00 | 49 | 993.1 |
| 20260508033418 | 10 | 225 | 9.7 | 11.3 | 0.00 | 0.00 | 0.00 | 49 | 993.1 |
| 20260508032918 | 10 | 225 | 12.9 | 16.1 | 0.00 | 0.00 | 0.00 | 49 | 993.1 |
| 20260508032417 | 10 | 225 | 14.5 | 17.7 | 0.00 | 0.00 | 0.00 | 49 | 993.1 |
| 20260508031917 | 11 | 225 | 12.9 | 14.5 | 0.00 | 0.00 | 0.00 | 48 | 993.0 |
| 20260508031417 | 11 | 225 | 12.9 | 17.7 | 0.00 | 0.00 | 0.00 | 48 | 993.2 |
| 20260508030917 | 11 | 225 | 14.5 | 17.7 | 0.00 | 0.00 | 0.00 | 48 | 993.2 |
| 20260508030417 | 11 | 225 | 14.5 | 17.7 | 0.00 | 0.00 | 0.00 | 49 | 993.2 |
| 20260508025917 | 11 | 225 | 16.1 | 17.7 | 0.00 | 0.00 | 0.00 | 48 | 993.3 |
| 20260508025417 | 11 | 225 | 16.1 | 17.7 | 0.00 | 0.00 | 0.00 | 48 | 993.4 |
| 20260508024917 | 11 | 225 | 16.1 | 20.9 | 0.00 | 0.00 | 0.00 | 48 | 993.3 |
| 20260508024438 | 11 | 225 | 19.3 | 24.1 | 0.00 | 0.00 | 0.00 | 48 | 993.3 |
| 20260508023917 | 11 | 225 | 16.1 | 19.3 | 0.00 | 0.00 | 0.00 | 46 | 993.3 |
| 20260508023418 | 11 | 225 | 19.3 | 24.1 | 0.00 | 0.00 | 0.00 | 46 | 993.2 |
| 20260508022917 | 11 | 248 | 19.3 | 25.7 | 0.00 | 0.00 | 0.00 | 45 | 993.3 |
| 20260508022418 | 11 | 225 | 19.3 | 22.5 | 0.00 | 0.00 | 0.00 | 45 | 993.2 |
| 20260508021937 | 11 | 225 | 16.1 | 17.7 | 0.00 | 0.00 | 0.00 | 45 | 993.2 |
| 20260508021418 | 11 | 225 | 19.3 | 22.5 | 0.00 | 0.00 | 0.00 | 44 | 993.1 |
| 20260508020917 | 11 | 225 | 16.1 | 19.3 | 0.00 | 0.00 | 0.00 | 42 | 993.1 |
| 20260508020417 | 12 | 225 | 9.7 | 12.9 | 0.00 | 0.00 | 0.00 | 43 | 993.2 |
| 20260508015917 | 12 | 225 | 12.9 | 16.1 | 0.00 | 0.00 | 0.00 | 42 | 993.2 |
| 20260508015417 | 12 | 225 | 11.3 | 16.1 | 0.00 | 0.00 | 0.00 | 41 | 993.2 |
| 20260508014917 | 12 | 225 | 9.7 | 14.5 | 0.00 | 0.00 | 0.00 | 41 | 993.1 |
| 20260508014438 | 12 | 225 | 9.7 | 16.1 | 0.00 | 0.00 | 0.00 | 40 | 993.0 |
| 20260508013957 | 12 | 248 | 11.3 | 16.1 | 0.00 | 0.00 | 0.00 | 40 | 993.0 |
| 20260508013417 | 12 | 225 | 14.5 | 17.7 | 0.00 | 0.00 | 0.00 | 40 | 992.9 |
| 20260508012917 | 12 | 225 | 17.7 | 22.5 | 0.00 | 0.00 | 0.00 | 40 | 992.8 |
| 20260508012417 | 12 | 203 | 11.3 | 30.6 | 0.00 | 0.00 | 0.00 | 39 | 992.7 |
| 20260508011917 | 12 | 203 | 6.4 | 9.7 | 0.00 | 0.00 | 0.00 | 42 | 992.8 |
| 20260508011417 | 12 | 203 | 6.4 | 9.7 | 0.00 | 0.00 | 0.00 | 42 | 992.7 |
| 20260508010937 | 12 | 225 | 4.8 | 4.8 | 0.00 | 0.00 | 0.00 | 42 | 992.6 |
| 20260508010417 | 12 | 225 | 3.2 | 6.4 | 0.00 | 0.00 | 0.00 | 42 | 992.6 |
| 20260508005917 | 12 | 248 | 3.2 | 3.2 | 0.00 | 0.00 | 0.00 | 42 | 992.4 |
| 20260508005416 | 12 | 248 | 1.6 | 3.2 | 0.00 | 0.00 | 0.00 | 43 | 992.5 |
| 20260508004917 | 12 | 248 | 3.2 | 3.2 | 0.00 | 0.00 | 0.00 | 42 | 992.5 |
| 20260508004417 | 12 | 0.0 | 3.2 | 0.00 | 0.00 | 0.00 | 41 | 992.4 | |
| 20260508003917 | 12 | 248 | 1.6 | 3.2 | 0.00 | 0.00 | 0.00 | 38 | 992.4 |
| 20260508003417 | 12 | 270 | 3.2 | 3.2 | 0.00 | 0.00 | 0.00 | 37 | 992.5 |
| 20260508002918 | 12 | 270 | 1.6 | 4.8 | 0.00 | 0.00 | 0.00 | 35 | 992.4 |
| 20260508002437 | 12 | 270 | 1.6 | 3.2 | 0.00 | 0.00 | 0.00 | 36 | 992.4 |
| 20260508001917 | 12 | 270 | 3.2 | 4.8 | 0.00 | 0.00 | 0.00 | 36 | 992.3 |
| 20260508001416 | 12 | 270 | 3.2 | 4.8 | 0.00 | 0.00 | 0.00 | 34 | 992.3 |
| 20260508000917 | 12 | 270 | 6.4 | 9.7 | 0.00 | 0.00 | 0.00 | 35 | 992.3 |
| 20260508000419 | 12 | 248 | 3.2 | 6.4 | 0.00 | 0.00 | 0.00 | 33 | 992.3 |
| 20260507235916 | 13 | 270 | 3.2 | 6.4 | 0.00 | 0.00 | 0.00 | 33 | 992.2 |
| 20260507235417 | 13 | 293 | 1.6 | 4.8 | 0.00 | 0.00 | 0.00 | 31 | 992.2 |
| 20260507234917 | 13 | 293 | 3.2 | 4.8 | 0.00 | 0.00 | 0.00 | 30 | 992.3 |
| 20260507234417 | 13 | 338 | 3.2 | 4.8 | 0.00 | 0.00 | 0.00 | 32 | 992.3 |
| 20260507233917 | 13 | 338 | 1.6 | 3.2 | 0.00 | 0.00 | 0.00 | 34 | 992.3 |
| 20260507233416 | 13 | 315 | 4.8 | 6.4 | 0.00 | 0.00 | 0.00 | 32 | 992.3 |
| 20260507232957 | 13 | 315 | 3.2 | 4.8 | 0.00 | 0.00 | 0.00 | 32 | 992.3 |
| 20260507232417 | 13 | 293 | 3.2 | 6.4 | 0.00 | 0.00 | 0.00 | 32 | 992.3 |
| 20260507231917 | 13 | 270 | 4.8 | 8.0 | 0.00 | 0.00 | 0.00 | 30 | 992.3 |
| 20260507231417 | 13 | 338 | 3.2 | 6.4 | 0.00 | 0.00 | 0.00 | 30 | 992.4 |
| 20260507230957 | 13 | 315 | 1.6 | 4.8 | 0.00 | 0.00 | 0.00 | 30 | 992.4 |
| 20260507230417 | 13 | 338 | 3.2 | 8.0 | 0.00 | 0.00 | 0.00 | 29 | 992.4 |
| 20260507225917 | 13 | 315 | 4.8 | 8.0 | 0.00 | 0.00 | 0.00 | 30 | 992.5 |
| 20260507225418 | 13 | 293 | 6.4 | 12.9 | 0.00 | 0.00 | 0.00 | 31 | 992.6 |
| 20260507224920 | 13 | 270 | 9.7 | 14.5 | 0.00 | 0.00 | 0.00 | 31 | 992.6 |
| 20260507224418 | 13 | 338 | 8.0 | 12.9 | 0.00 | 0.00 | 0.00 | 32 | 992.6 |
| 20260507223939 | 13 | 293 | 4.8 | 8.0 | 0.00 | 0.00 | 0.00 | 31 | 992.6 |
| 20260507223417 | 13 | 338 | 6.4 | 12.9 | 0.00 | 0.00 | 0.00 | 30 | 992.6 |
| 20260507222939 | 13 | 270 | 4.8 | 11.3 | 0.00 | 0.00 | 0.00 | 31 | 992.7 |
| 20260507222419 | 13 | 270 | 11.3 | 16.1 | 0.00 | 0.00 | 0.00 | 33 | 992.6 |
| 20260507221918 | 13 | 315 | 6.4 | 11.3 | 0.00 | 0.00 | 0.00 | 31 | 992.7 |
| 20260507221419 | 13 | 270 | 11.3 | 14.5 | 0.00 | 0.00 | 0.00 | 32 | 992.7 |
| 20260507220919 | 13 | 270 | 9.7 | 14.5 | 0.00 | 0.00 | 0.00 | 31 | 992.5 |
| 20260507220419 | 13 | 315 | 12.9 | 19.3 | 0.00 | 0.00 | 0.00 | 32 | 992.6 |
| 20260507215939 | 13 | 270 | 11.3 | 16.1 | 0.00 | 0.00 | 0.00 | 32 | 992.5 |
| 20260507215420 | 13 | 270 | 11.3 | 16.1 | 0.00 | 0.00 | 0.00 | 32 | 992.5 |
| 20260507214917 | 13 | 270 | 9.7 | 14.5 | 0.00 | 0.00 | 0.00 | 32 | 992.5 |
| 20260507214420 | 13 | 270 | 9.7 | 14.5 | 0.00 | 0.00 | 0.00 | 32 | 992.6 |
| 20260507213939 | 13 | 270 | 11.3 | 16.1 | 0.00 | 0.00 | 0.00 | 36 | 992.6 |
| 20260507213421 | 13 | 270 | 11.3 | 16.1 | 0.00 | 0.00 | 0.00 | 35 | 992.5 |
| 20260507212920 | 13 | 270 | 14.5 | 19.3 | 0.00 | 0.00 | 0.00 | 35 | 992.5 |
| 20260507212419 | 13 | 293 | 6.4 | 8.0 | 0.00 | 0.00 | 0.00 | 33 | 992.5 |
| 20260507211939 | 13 | 270 | 9.7 | 12.9 | 0.00 | 0.00 | 0.00 | 32 | 992.5 |
| 20260507211419 | 13 | 270 | 9.7 | 16.1 | 0.00 | 0.00 | 0.00 | 32 | 992.5 |
| 20260507210937 | 13 | 270 | 8.0 | 14.5 | 0.00 | 0.00 | 0.00 | 35 | 992.5 |
| 20260507210420 | 13 | 270 | 19.3 | 22.5 | 0.00 | 0.00 | 0.00 | 35 | 992.4 |
| 20260507205919 | 13 | 293 | 6.4 | 12.9 | 0.00 | 0.00 | 0.00 | 35 | 992.4 |
| 20260507205419 | 13 | 293 | 8.0 | 12.9 | 0.00 | 0.00 | 0.00 | 34 | 992.4 |
| 20260507204918 | 13 | 270 | 8.0 | 11.3 | 0.00 | 0.00 | 0.00 | 34 | 992.5 |
| 20260507204437 | 13 | 270 | 12.9 | 16.1 | 0.00 | 0.00 | 0.00 | 33 | 992.5 |
| 20260507203916 | 13 | 270 | 11.3 | 17.7 | 0.00 | 0.00 | 0.00 | 33 | 992.6 |
| 20260507203419 | 13 | 270 | 12.9 | 17.7 | 0.00 | 0.00 | 0.00 | 33 | 992.5 |
| 20260507202919 | 13 | 293 | 11.3 | 16.1 | 0.00 | 0.00 | 0.00 | 35 | 992.6 |
| 20260507202419 | 13 | 293 | 11.3 | 17.7 | 0.00 | 0.00 | 0.00 | 30 | 992.5 |
| 20260507201916 | 13 | 270 | 14.5 | 20.9 | 0.00 | 0.00 | 0.00 | 31 | 992.5 |
| 20260507201418 | 13 | 293 | 9.7 | 14.5 | 0.00 | 0.00 | 0.00 | 34 | 992.5 |
| 20260507200918 | 13 | 270 | 12.9 | 17.7 | 0.00 | 0.00 | 0.00 | 33 | 992.5 |
| 20260507200418 | 13 | 270 | 12.9 | 16.1 | 0.00 | 0.00 | 0.00 | 35 | 992.4 |
| 20260507195916 | 13 | 270 | 11.3 | 17.7 | 0.00 | 0.00 | 0.00 | 36 | 992.5 |
| 20260507195418 | 13 | 293 | 9.7 | 12.9 | 0.00 | 0.00 | 0.00 | 34 | 992.3 |
| 20260507194917 | 13 | 270 | 4.8 | 6.4 | 0.00 | 0.00 | 0.00 | 34 | 992.3 |
| 20260507194418 | 13 | 270 | 11.3 | 16.1 | 0.00 | 0.00 | 0.00 | 32 | 992.5 |
| 20260507193919 | 13 | 270 | 11.3 | 16.1 | 0.00 | 0.00 | 0.00 | 35 | 992.5 |
| 20260507193419 | 13 | 270 | 20.9 | 25.7 | 0.00 | 0.00 | 0.00 | 32 | 992.7 |
| 20260507192920 | 13 | 270 | 17.7 | 20.9 | 0.00 | 0.00 | 0.00 | 37 | 992.7 |
| 20260507192418 | 13 | 270 | 11.3 | 16.1 | 0.00 | 0.00 | 0.00 | 38 | 992.6 |
| 20260507191918 | 13 | 293 | 8.0 | 14.5 | 0.00 | 0.00 | 0.00 | 42 | 992.7 |
| 20260507191422 | 13 | 0 | 14.5 | 19.3 | 0.00 | 0.00 | 0.00 | 42 | 992.7 |
| 20260507190918 | 13 | 270 | 14.5 | 17.7 | 0.00 | 0.00 | 0.00 | 38 | 992.7 |
| 20260507190420 | 13 | 248 | 17.7 | 22.5 | 0.00 | 0.00 | 0.00 | 39 | 992.6 |
| 20260507185918 | 13 | 270 | 17.7 | 20.9 | 0.00 | 0.00 | 0.00 | 38 | 992.7 |
| 20260507185440 | 13 | 270 | 14.5 | 25.7 | 0.00 | 0.00 | 0.00 | 38 | 992.7 |
| 20260507184918 | 13 | 270 | 17.7 | 20.9 | 0.00 | 0.00 | 0.00 | 38 | 992.7 |
| 20260507184420 | 12 | 270 | 12.9 | 16.1 | 0.00 | 0.00 | 0.00 | 37 | 992.8 |
| 20260507183918 | 13 | 270 | 16.1 | 19.3 | 0.00 | 0.00 | 0.00 | 39 | 992.8 |
| 20260507183418 | 12 | 270 | 11.3 | 16.1 | 0.00 | 0.00 | 0.00 | 41 | 992.8 |
| 20260507182921 | 12 | 270 | 17.7 | 19.3 | 0.00 | 0.00 | 0.00 | 42 | 992.8 |
| 20260507182420 | 12 | 248 | 12.9 | 16.1 | 0.00 | 0.00 | 0.00 | 40 | 992.7 |
| 20260507181920 | 12 | 270 | 14.5 | 22.5 | 0.00 | 0.00 | 0.00 | 39 | 992.8 |
| 20260507181421 | 12 | 270 | 24.1 | 27.4 | 0.00 | 0.00 | 0.00 | 39 | 992.7 |
| 20260507180918 | 12 | 270 | 14.5 | 19.3 | 0.00 | 0.00 | 0.00 | 39 | 992.7 |
| 20260507180420 | 12 | 248 | 11.3 | 17.7 | 0.00 | 0.00 | 0.00 | 38 | 992.6 |
| 20260507175941 | 12 | 248 | 16.1 | 17.7 | 0.00 | 0.00 | 0.00 | 40 | 992.8 |
| 20260507175420 | 12 | 248 | 14.5 | 17.7 | 0.00 | 0.00 | 0.00 | 40 | 992.8 |
| 20260507174921 | 12 | 248 | 12.9 | 17.7 | 0.00 | 0.00 | 0.00 | 39 | 992.8 |
| 20260507174440 | 12 | 270 | 14.5 | 19.3 | 0.00 | 0.00 | 0.00 | 40 | 992.9 |
| 20260507173921 | 12 | 270 | 16.1 | 17.7 | 0.00 | 0.00 | 0.00 | 39 | 993.0 |
| 20260507173418 | 12 | 270 | 17.7 | 22.5 | 0.00 | 0.00 | 0.00 | 40 | 993.0 |
| 20260507172941 | 12 | 248 | 9.7 | 14.5 | 0.00 | 0.00 | 0.00 | 41 | 993.0 |
| 20260507172421 | 12 | 248 | 14.5 | 20.9 | 0.00 | 0.00 | 0.00 | 40 | 993.0 |
| 20260507171920 | 12 | 270 | 16.1 | 17.7 | 0.00 | 0.00 | 0.00 | 42 | 993.2 |
| 20260507171421 | 12 | 270 | 20.9 | 25.7 | 0.00 | 0.00 | 0.00 | 42 | 993.1 |
| 20260507170920 | 12 | 270 | 16.1 | 20.9 | 0.00 | 0.00 | 0.00 | 40 | 993.2 |
| 20260507170418 | 12 | 270 | 16.1 | 22.5 | 0.00 | 0.00 | 0.00 | 42 | 993.2 |
| 20260507165921 | 12 | 270 | 12.9 | 17.7 | 0.00 | 0.00 | 0.00 | 44 | 993.2 |
| 20260507165421 | 12 | 270 | 12.9 | 19.3 | 0.00 | 0.00 | 0.00 | 42 | 993.3 |
| 20260507164920 | 11 | 270 | 8.0 | 12.9 | 0.00 | 0.00 | 0.00 | 44 | 993.3 |
| 20260507164420 | 11 | 293 | 9.7 | 12.9 | 0.00 | 0.00 | 0.00 | 42 | 993.4 |
| 20260507163922 | 11 | 270 | 11.3 | 14.5 | 0.00 | 0.00 | 0.00 | 43 | 993.4 |
| 20260507163418 | 12 | 270 | 17.7 | 22.5 | 0.00 | 0.00 | 0.00 | 42 | 993.2 |
| 20260507162920 | 12 | 293 | 8.0 | 11.3 | 0.00 | 0.00 | 0.00 | 41 | 993.4 |
| 20260507162421 | 12 | 315 | 6.4 | 11.3 | 0.00 | 0.00 | 0.00 | 41 | 993.3 |
| 20260507161921 | 11 | 270 | 9.7 | 12.9 | 0.00 | 0.00 | 0.00 | 41 | 993.4 |
| 20260507161421 | 11 | 338 | 6.4 | 14.5 | 0.00 | 0.00 | 0.00 | 39 | 993.4 |
| 20260507160920 | 12 | 315 | 4.8 | 8.0 | 0.00 | 0.00 | 0.00 | 40 | 993.2 |
| 20260507160501 | 12 | 315 | 4.8 | 12.9 | 0.00 | 0.00 | 0.00 | 42 | 993.2 |
| 20260507155918 | 12 | 293 | 4.8 | 8.0 | 0.00 | 0.00 | 0.00 | 42 | 993.2 |
| 20260507155421 | 12 | 293 | 4.8 | 11.3 | 0.00 | 0.00 | 0.00 | 45 | 993.2 |